Miscellaneous Local Product
Issued by NWS Hastings, NE

Home | Current Version | Previous Version | Graphics & Text | Print | Product List | Glossary On
Versions: 1 2 3 4 5 6 7 8 9 10 11 12 13 14 15 16 17 18 19 20 21 22 23 24 25 26 27 28 29 30 31 32 33 34 35 36 37 38 39 40 41 42 43 44 45 46 47 48 49 50
000
AXUS43 KGID 221302
MISGRI

GID CWA HOURLY WEATHER ROUNDUP
NATIONAL WEATHER SERVICE HASTINGS NE
800 AM CDT TUE JUL 22 2014

NOTE: "FAIR" INDICATES FEW OR NO CLOUDS BELOW 12,000 FEET WITH NO
SIGNIFICANT WEATHER AND/OR OBSTRUCTIONS TO VISIBILITY.

...SOUTH CENTRAL NEBRASKA...

CITY           SKY/WX    TMP DP  RH WIND       PRES   REMARKS
GRAND ISLAND   SUNNY     77  64  64 N10       30.05R
HASTINGS       SUNNY     76  63  64 N9        30.05R
KEARNEY        SUNNY     75  63  64 N9        30.08R
ORD            SUNNY     73  60  63 VRB3      30.06S
YORK           SUNNY     77  68  73 N18G25    30.03S
AURORA         SUNNY     78  68  71 N10       30.04R
LEXINGTON      SUNNY     76  64  66 NE8       30.09S
HOLDREGE       MOSUNNY   73  63  70 N6        30.08R
HEBRON         MOSUNNY   77  69  77 SW7       30.03S

...NEBRASKA PANHANDLE...

CITY           SKY/WX    TMP DP  RH WIND       PRES   REMARKS
CHADRON        MOSUNNY   66  61  84 S9        30.18F
ALLIANCE       SUNNY     66  61  84 N10       30.21R
SCOTTSBLUFF    MOSUNNY   69  60  73 N7        30.23R
SIDNEY         SUNNY     68  52  56 NW8       30.22R

...WESTERN AND NORTH CENTRAL NEBRASKA...

CITY           SKY/WX    TMP DP  RH WIND       PRES   REMARKS
VALENTINE      MOSUNNY   72  63  73 N12       30.13R
AINSWORTH      MOSUNNY   73  60  64 SE5       30.09R
ONEILL         PTSUNNY   73  59  62 CALM      30.07S
BROKEN BOW     MOSUNNY   74  62  66 NE9       30.08F
IMPERIAL       SUNNY     75  58  55 E10       30.12R
NORTH PLATTE   MOSUNNY   75  59  57 E13       30.07F
MCCOOK         SUNNY     71  64  78 NE3       30.11R

...EASTERN NEBRASKA...

CITY           SKY/WX    TMP DP  RH WIND       PRES   REMARKS
NORFOLK        MOSUNNY   74  62  66 NE6       30.00F
SO SIOUX CITY  MOSUNNY   80  63  55 NE10      29.95F
TEKAMAH        CLOUDY    81  74  79 N16G23    29.97R
COLUMBUS       PTSUNNY   73  64  73 N6        30.03R
ALBION         MOSUNNY   74  58  58 E5        30.03S
OMAHA EPPLEY   PTSUNNY   83  70  64 W7        29.97R
OFFUTT AFB     PTSUNNY   81  73  76 SW5       29.97R
MILLARD        PTSUNNY   81  72  73 W8        29.96S
LINCOLN        MOSUNNY   81  70  69 W8        30.01R
NEBRASKA CITY  MOSUNNY   79  73  81 SW10      29.98F
BEATRICE       MOSUNNY   73  70  91 SW5       30.01F
FALLS CITY     MOSUNNY   78  74  87 CALM      30.01R

...NORTHERN KANSAS...

CITY           SKY/WX    TMP DP  RH WIND       PRES   REMARKS
GOODLAND       SUNNY     72  60  66 MISG      30.17R
HILL CITY      SUNNY     70  62  76 CALM      30.10R
NORTON         SUNNY     68  61  77 CALM      30.08S
PHILLIPSBURG   SUNNY     70  63  78 SW3       30.08R
SMITH CENTER   SUNNY     73  66  78 S5        30.09R
HAYS           SUNNY     72  61  68 N3        30.11R
RUSSELL        SUNNY     73  68  84 CALM      30.08R
CONCORDIA      MOSUNNY   81  70  69 W9        30.04R
SALINA         SUNNY     78  72  81 SW12      30.04R
TOPEKA         MOSUNNY   80  75  84 S7        30.02R



USA.gov is the U.S. government's official web portal to all federal, state and local government web resources and services.